Starlink 32006

operational
NORAD ID: 60029 Int'l Des: 2024-111 Owner: SPXS Country: US Constellation: starlink
LEOCIRCULAR

About Starlink 32006

Description loading...

Live Position

Loading 3D Globe...

Upcoming Passes

Altitude History

Altitude vs Time

uPlot chart will show altitude changes over time

Two-Line Element Set

1 60029U 24111P 25305.34718502 -.00000671 00000-0 -10515-4 0 9993
2 60029 53.1606 311.7687 0001419 90.4830 269.6333 15.30189521 79386
Epoch: Nov 1, 2025 • Age: 17 hours

Current Status

Altitude 490.1 km
Velocity 7.62 km/s
Sub-Earth Point -42.07°S, 113.67°E
Launch Date Jun 8, 2024
Age 1.3 years
Type internet

Technical Details

Classification Payload
Mass 730.00 kg
Dry Mass 700.00 kg
Total Mass 730.00 kg
Length 0.30 m
Diameter 4.10 m
Span 29.00 m
Shape Box + pan
Manufacturer SPXS
Bus Type Starlink V2M
Phase Status In Orbit
Owner/State SPXS/US

Large Constellations

Loading constellations...